This is the latest recevied weather packets stored in our database for station/object KK4WXG. If no packets are shown the sender has not sent any weather packets the latest 10 day(s).
| Time | Temp. | Humidity | Pressure | Rain* | Wind** | Luminosity | Snow |
|---|---|---|---|---|---|---|---|
| 1777924906 | 23.89° C | 36% | 1009 hPa | 0 mm | - | 713 W/m² | - |
| 1777924601 | 23.89° C | 37% | 1008.9 hPa | 0 mm | - | 712 W/m² | - |
| 1777924298 | 23.89° C | 37% | 1009.1 hPa | 0 mm | - | 682 W/m² | - |
| 1777923995 | 23.89° C | 38% | 1009 hPa | 0 mm | - | 505 W/m² | - |
| 1777923691 | 23.89° C | 38% | 1009.2 hPa | 0 mm | - | 302 W/m² | - |
| 1777923387 | 23.89° C | 36% | 1009.3 hPa | 0 mm | - | 187 W/m² | - |
| 1777923086 | 23.89° C | 37% | 1009.6 hPa | 0 mm | - | 859 W/m² | - |
| 1777922783 | 23.89° C | 37% | 1009.6 hPa | 0 mm | - | 918 W/m² | - |
| 1777922481 | 24.44° C | 37% | 1009.6 hPa | 0 mm | - | 247 W/m² | - |
| 1777922179 | 24.44° C | 37% | 1009.4 hPa | 0 mm | - | 843 W/m² | - |
| 1777921875 | 24.44° C | 35% | 1009.6 hPa | 0 mm | - | 843 W/m² | - |
| 1777921571 | 23.89° C | 40% | 1009.6 hPa | 0 mm | - | 851 W/m² | - |
| 1777921268 | 23.89° C | 37% | 1009.7 hPa | 0 mm | - | 899 W/m² | - |
| 1777920965 | 23.89° C | 35% | 1009.9 hPa | 0 mm | - | 870 W/m² | - |
| 1777920661 | 23.89° C | 38% | 1010.2 hPa | 0 mm | - | 899 W/m² | - |
| 1777920357 | 22.78° C | 37% | 1010.3 hPa | 0 mm | - | 875 W/m² | - |
| 1777920052 | 23.33° C | 39% | 1010 hPa | 0 mm | - | 899 W/m² | - |
| 1777919749 | 23.33° C | 37% | 1010.4 hPa | 0 mm | - | 912 W/m² | - |
| 1777919448 | 23.33° C | 40% | 1010.3 hPa | 0 mm | - | 933 W/m² | - |
| 1777919144 | 23.33° C | 42% | 1010.4 hPa | 0 mm | - | 934 W/m² | - |
| 1777918842 | 22.78° C | 39% | 1010.6 hPa | 0 mm | - | 938 W/m² | - |
| 1777918539 | 22.78° C | 41% | 1010.8 hPa | 0 mm | - | 940 W/m² | - |
| 1777918237 | 22.78° C | 38% | 1010.8 hPa | 0 mm | - | 957 W/m² | - |
| 1777917935 | 22.22° C | 37% | 1010.8 hPa | 0 mm | - | 973 W/m² | - |
| 1777917634 | 22.78° C | 38% | 1011 hPa | 0 mm | - | 967 W/m² | - |
* Rain latest hour (hover to see other rain measurements)
** Current wind speed in m/s (hover to see current wind gust speed)